Location: ????????
(55.6189°N, 38.3031°E)
Time: 01:03:31
(UTC+00:00)

COSMOS 2455 - Pass Details

Date: 15 November 2019
Orbit: 902 x 908 km, 67.1° (Epoch: 14 December)

Event Time Altitude Azimuth Distance (km) Brightness Sun altitude
Exits shadow 01:05:09 49° 23° (NNE) 1,166 3.5 -32.7°
Maximum altitude 01:05:29 49° 34° (NE) 1,158 3.5 -32.7°
Drops below altitude 10° 01:11:19 10° 109° (ESE) 2,592 5.8 -31.9°
Sets 01:13:54 0° 115° (ESE) 3,531 6.6 -31.5°
